STARLINK-1097 (44916 NORAD) Tracking and Keplerian Element Data

This shows tracking and keplerian element data for the satellite.

Feedback or suggestion? Click here.




ElementValue
Catalog44916
NameSTARLINK-1097
Epoch Orbit645
Epoch Day48.58334491
Epoch Year2020
RAAN197.2713
Inclination52.9964
Eccentricity0.0001583
Argument of Perigee70.5334
Mean Anonmoly150.8738
Mean Motion15.13099155
Decay Rate-0.00037634
L11 44916U 20001C 20048.58334491 -.00037634 00000-0 -20954-2 0 9995
L22 44916 52.9964 197.2713 0001583 70.5334 150.8738 15.13099155 6456

Live tracking and technical data element details for STARLINK-1097 (NORAD 44916). STARLINK-1097 can be tracked NOW for your location showing map with azimuth and elevation plus other details from your city location.

Track the satellite on the map from your city or location and see movement details for azimuth, elevation, latitude, longitude, range, height, and movement on the map or in text.







IsCatalogInMostPopularTable: catalog: 44916, numindb: 7
Update: records affected: 1



GetName: 44916 STARLINK-1097

Hit Count: updated at: Tue, 18 Feb 2020 00:10:20 GMT